[[{"header":{"parameterUnit":"m.s-1","parameterCategory":2,"la1":30.2991,"la2":30.254,"lo1":-89.0895,"lo2":-89.0444,"dy":0.0017,"dx":0.0017,"nx":28,"ny":28,"refTime":"2024-05-19T03:00:00:Z","depth":"0","parameterNumber":2,"parameterNumberName":"U-component_of_CURRENTS"},"data":[0,0,0,0,0,0,0,0,0,0,0,0,0,0,0,0,0,0,0,0,0,0,0,0,0,0,0,0,0,0,0,0,0,0,0,0,0,0,0,0,0,0,0,0,0,0,0,0,0,0,0,0,0,0,0,0,0,0,0.1561,0.156,0,0.1435,0.1433,0.1432,0.1377,0.1378,0.1378,0.1378,0.1343,0.1342,0.1341,0,0,0,0,0,0,0,0,0,0,0,0,0,0.1755,0.1751,0.1561,0.1559,0.1558,0.1435,0.1433,0.1431,0.1377,0.1378,0.1378,0.1378,0.1344,0.1342,0.1341,0,0,0,0,0,0,0,0,0,0,0,0,0,0.1653,0.175,0.1561,0.1517,0.1512,0.1435,0.1433,0.1431,0.1377,0.1378,0.1378,0.1378,0.1344,0.1342,0.134,0.1319,0,0,0.1335,0.1334,0,0,0,0,0,0,0,0,0.1659,0.1646,0.1525,0.152,0.1514,0.1423,0.1488,0.1398,0.1377,0.1427,0.1378,0.1379,0.1379,0.1374,0.1346,0.1318,0.1316,0.1335,0.1334,0.1333,0.1332,0,0,0,0,0,0,0,0.1666,0.1651,0.151,0.1523,0.1517,0.1504,0.1489,0.1471,0.1403,0.1423,0.1419,0.1406,0.1376,0.1348,0.1345,0.1316,0.1335,0.1333,0.1332,0.1331,0.1307,0.1307,0,0,0,0,0,0,0.1682,0.1657,0.1514,0.1506,0.159,0.15,0.1484,0.1451,0.1401,0.1393,0.1406,0.1404,0.1351,0.1348,0.1344,0.1388,0.1333,0.1331,0.133,0.1307,0.1307,0.1308,0,0,0,0,0,0,0.1687,0.167,0.1519,0.1581,0.1561,0.1496,0.1459,0.1448,0.1431,0.1387,0.1381,0.1402,0.1351,0.1347,0.1337,0.1384,0.133,0.1329,0.1306,0.1307,0.1307,0.143,0,0,0,0,0,0,0.1692,0.1672,0.1671,0.1581,0.1558,0.1501,0.1459,0.1445,0.1423,0.1419,0.1382,0.1378,0.1351,0.134,0.1335,0.138,0.1327,0.1305,0.1306,0.1307,0.1426,0.1435,0.1443,0,0,0,0,0,0.1699,0.1712,0.1671,0.1655,0.1552,0.1503,0.1491,0.1445,0.1422,0.1428,0.1392,0.138,0.1342,0.1338,0.1333,0.1379,0.1305,0.1306,0.1307,0.1422,0.1433,0.1443,0,0,0,0,0,0,0.1827,0.1704,0.1658,0.164,0.1582,0.1495,0.1507,0.1455,0.1425,0.1434,0.138,0.1374,0.1386,0.1353,0.135,0.137,0.1324,0.1324,0.1414,0.1424,0.1433,0.1484,0.1326,0,0,0,0,0,0.1843,0.1808,0.1699,0.1696,0.1667,0.1582,0.1561,0.1522,0.1475,0.1461,0.1421,0.1391,0.1381,0.138,0.1358,0.1367,0.1411,0.1391,0.14,0.1408,0.1443,0.1573,0.16,0.1311,0.1311,0.1311,0,0,0.1897,0.1827,0.1812,0.1719,0.1673,0.165,0.1572,0.1555,0.1544,0.1466,0.1458,0.1422,0.1387,0.1399,0.1402,0.1383,0.1505,0.1409,0.1417,0.1449,0.1578,0.1607,0.1633,0.1312,0.1312,0.1312,0,0,0.1995,0.192,0.192,0.187,0.1798,0.1732,0.1729,0.1635,0.1608,0.1577,0.1532,0.1526,0.1477,0.1478,0.1469,0.1512,0.1546,0.1496,0.1593,0.1719,0.1746,0.177,0.1843,0.1873,0.1505,0.1506,0.1506,0,0.2073,0.2031,0.1926,0.1917,0.1891,0.1773,0.178,0.1732,0.1651,0.1642,0.1599,0.156,0.1526,0.157,0.158,0.1542,0.1605,0.1561,0.1739,0.1764,0.1787,0.1856,0.1888,0.1512,0.1511,0.151,0.151,0,0.2146,0.2124,0.2134,0.2057,0.2023,0.2015,0.1917,0.1888,0.1823,0.1769,0.1775,0.1721,0.1708,0.1691,0.1649,0.1779,0.1766,0.174,0.173,0.1825,0.1889,0.192,0.152,0.1518,0.1516,0.1515,0,0,0.2274,0.2197,0.2196,0.2179,0.209,0.2061,0.2056,0.2002,0.2004,0.1939,0.196,0.1933,0.1899,0.1889,0.1844,0.1937,0.2128,0.1919,0.1923,0.2023,0.2401,0.223,0.2246,0.2159,0.2165,0.217,0.2375,0,0.2358,0.2368,0.2303,0.2317,0.2302,0.2208,0.2204,0.2153,0.2094,0.2082,0.2049,0.2048,0.1976,0.198,0.2069,0.2102,0.2219,0.2074,0.2266,0.2271,0.2136,0.228,0.2113,0.2269,0.2405,0.241,0.2414,0,0.2422,0.2414,0.244,0.2404,0.2393,0.2389,0.2345,0.2329,0.2293,0.2261,0.2268,0.222,0.2299,0.2232,0.2414,0.2333,0.24,0.2433,0.2441,0.227,0.2159,0.2196,0.232,0.2217,0.2461,0.2457,0.2454,0,0.25,0.2499,0.2516,0.2503,0.2452,0.2461,0.2435,0.2392,0.2374,0.2387,0.2381,0.2449,0.2462,0.2595,0.2586,0.2559,0.2781,0.2749,0.2667,0.2653,0.254,0.2504,0.2617,0.2955,0.2954,0.2954,0.2953,0,0.2566,0.2581,0.2555,0.2556,0.2579,0.2533,0.255,0.2527,0.2515,0.2506,0.2486,0.2494,0.2568,0.2633,0.2688,0.2741,0.2875,0.2733,0.2724,0.2566,0.2532,0.2453,0.2416,0.2961,0.296,0.2958,0.2957,0,0.2617,0.2604,0.262,0.2608,0.2603,0.2615,0.2589,0.259,0.2587,0.2584,0.2597,0.2585,0.2652,0.268,0.2851,0.2828,0.2812,0.2911,0.2672,0.2629,0.2427,0.2402,0.2382,0.2332,0.2911,0.2908,0.2906,0,0.2633,0.2648,0.2651,0.265,0.264,0.2646,0.2633,0.2622,0.2613,0.2614,0.2614,0.2652,0.2624,0.2741,0.2723,0.2798,0.272,0.2694,0.2608,0.2433,0.2403,0.2253,0.2205,0.2516,0.2511,0.2507,0.2503,0,0.2663,0.2667,0.2671,0.2675,0.2669,0.2657,0.2649,0.265,0.2627,0.262,0.2603,0.2596,0.2594,0.2524,0.2538,0.257,0.2493,0.2604,0.254,0.2209,0.1949,0.1886,0.2326,0.2465,0.2469,0.2472,0.2474,0.2475,0.2679,0.2687,0.2688,0.2684,0.2674,0.2648,0.2617,0.2602,0.2576,0.2503,0.2549,0.2485,0.2397,0.2354,0.2325,0.2159,0.222,0.2109,0.213,0.2021,0.1852,0.2158,0.2188,0.219,0.2192,0.2194,0.2195,0,0.2685,0.2686,0.2688,0.2667,0.2636,0.2635,0.2593,0.2525,0.246,0.2427,0.2372,0.2266,0.2123,0.2041,0.1862,0.173,0.1641,0.1668,0.1484,0.1499,0.1894,0.175,0.1543,0.1543,0.1543,0.1543,0.1543,0.1544,0.2687,0.2684,0.2676,0.2621,0.2596,0.2505,0.2461,0.2361,0.231,0.2146,0.2062,0.202,0.1953,0.1677,0.1442,0.1394,0.1278,0.1109,0.1198,0.151,0.1554,0.1595,0.1452,0.1185,0.1185,0.0681,0.0677,0.0674]},{"header":{"parameterUnit":"m.s-1","parameterCategory":2,"la1":30.2991,"la2":30.254,"lo1":-89.0895,"lo2":-89.0444,"dy":0.0017,"dx":0.0017,"nx":28,"ny":28,"refTime":"2024-05-19T03:00:00:Z","depth":"0","parameterNumber":3,"parameterNumberName":"V-component_of_CURRENTS"},"data":[0,0,0,0,0,0,0,0,0,0,0,0,0,0,0,0,0,0,0,0,0,0,0,0,0,0,0,0,0,0,0,0,0,0,0,0,0,0,0,0,0,0,0,0,0,0,0,0,0,0,0,0,0,0,0,0,0,0,-0.0583,-0.0583,0,-0.0527,-0.0526,-0.0526,-0.0517,-0.0518,-0.0518,-0.0519,-0.0498,-0.0497,-0.0496,0,0,0,0,0,0,0,0,0,0,0,0,0,-0.0647,-0.0646,-0.0583,-0.0583,-0.0582,-0.0527,-0.0526,-0.0526,-0.0517,-0.0518,-0.0518,-0.0519,-0.0498,-0.0497,-0.0496,0,0,0,0,0,0,0,0,0,0,0,0,0,-0.0609,-0.0646,-0.0584,-0.0571,-0.0569,-0.0527,-0.0526,-0.0525,-0.0517,-0.0518,-0.0519,-0.0519,-0.0499,-0.0497,-0.0496,-0.0473,0,0,-0.0491,-0.0491,0,0,0,0,0,0,0,0,-0.0611,-0.0606,-0.0573,-0.0571,-0.0569,-0.0529,-0.0541,-0.051,-0.0517,-0.0538,-0.0519,-0.052,-0.0511,-0.0508,-0.0497,-0.0472,-0.0471,-0.0491,-0.049,-0.049,-0.0489,0,0,0,0,0,0,0,-0.0614,-0.0609,-0.0562,-0.0572,-0.057,-0.0555,-0.0551,-0.0535,-0.0522,-0.0536,-0.0535,-0.0527,-0.051,-0.0498,-0.0496,-0.0471,-0.0491,-0.049,-0.0489,-0.0488,-0.043,-0.0429,0,0,0,0,0,0,-0.062,-0.0611,-0.0564,-0.056,-0.0591,-0.0553,-0.0549,-0.0542,-0.0522,-0.0519,-0.0527,-0.0527,-0.05,-0.0498,-0.0496,-0.0454,-0.049,-0.0488,-0.0487,-0.0431,-0.043,-0.0429,0,0,0,0,0,0,-0.0622,-0.0616,-0.0566,-0.0584,-0.0576,-0.0552,-0.0544,-0.0541,-0.0531,-0.0514,-0.0512,-0.0522,-0.0501,-0.0498,-0.0481,-0.0454,-0.0488,-0.0486,-0.0431,-0.043,-0.0429,-0.0381,0,0,0,0,0,0,-0.0624,-0.0617,-0.0614,-0.0584,-0.0575,-0.0539,-0.0543,-0.0539,-0.0525,-0.0525,-0.0509,-0.0508,-0.0501,-0.0483,-0.0479,-0.0453,-0.0485,-0.0432,-0.0431,-0.043,-0.0384,-0.0379,-0.0374,0,0,0,0,0,-0.0626,-0.0614,-0.0615,-0.0609,-0.0572,-0.0538,-0.0532,-0.0518,-0.0524,-0.0513,-0.0506,-0.0508,-0.0472,-0.0481,-0.0477,-0.045,-0.0433,-0.0431,-0.043,-0.0386,-0.038,-0.0374,0,0,0,0,0,0,-0.0631,-0.0611,-0.0611,-0.0592,-0.0569,-0.0537,-0.0523,-0.0517,-0.0502,-0.0505,-0.0498,-0.0495,-0.0471,-0.0471,-0.0481,-0.0431,-0.0453,-0.0451,-0.0421,-0.0415,-0.0411,-0.038,-0.0484,0,0,0,0,0,-0.0633,-0.0624,-0.0599,-0.0583,-0.0572,-0.055,-0.0536,-0.0526,-0.0507,-0.0501,-0.0488,-0.0476,-0.0459,-0.0448,-0.0435,-0.0405,-0.0374,-0.0387,-0.0382,-0.0378,-0.0352,-0.0278,-0.0264,-0.0424,-0.0424,-0.0424,0,0,-0.0625,-0.0617,-0.0609,-0.0584,-0.0566,-0.0533,-0.0543,-0.0518,-0.0488,-0.0501,-0.0461,-0.0461,-0.045,-0.0417,-0.0405,-0.0413,-0.032,-0.0376,-0.0373,-0.0348,-0.0275,-0.0259,-0.0245,-0.0423,-0.0423,-0.0423,0,0,-0.0599,-0.0603,-0.0583,-0.0565,-0.0541,-0.0524,-0.0518,-0.0487,-0.0473,-0.0439,-0.0441,-0.0421,-0.0397,-0.0372,-0.0361,-0.0322,-0.0302,-0.033,-0.0272,-0.0202,-0.0187,-0.0174,-0.0125,-0.0108,-0.0322,-0.0322,-0.0322,0,-0.0586,-0.0563,-0.0569,-0.0542,-0.0519,-0.0519,-0.048,-0.0461,-0.0427,-0.0402,-0.0422,-0.0361,-0.0365,-0.0303,-0.0295,-0.0307,-0.0272,-0.0294,-0.0192,-0.0179,-0.0166,-0.0119,-0.01,-0.032,-0.032,-0.032,-0.0321,0,-0.0539,-0.0522,-0.0507,-0.0475,-0.0456,-0.0423,-0.0401,-0.0377,-0.0367,-0.034,-0.0287,-0.0282,-0.024,-0.0246,-0.0259,-0.0173,-0.018,-0.0198,-0.0201,-0.0146,-0.0101,-0.0082,-0.0316,-0.0317,-0.0318,-0.0318,0,0,-0.0477,-0.0474,-0.0462,-0.0446,-0.0418,-0.0391,-0.0348,-0.0293,-0.0248,-0.0226,-0.0151,-0.0136,-0.0132,-0.0118,-0.0129,-0.0075,0.0025,-0.0095,-0.0093,-0.0036,0.0179,0.0162,0.018,0.0031,0.0034,0.0037,0.017,0,-0.0424,-0.0381,-0.0386,-0.0328,-0.03,-0.0294,-0.0248,-0.0207,-0.0176,-0.0107,-0.0087,-0.0034,-0.0084,-0.0062,-0.0012,0.0032,0.0079,-0.0009,0.0109,0.0113,0.0101,0.0203,0.0184,0.03,0.0188,0.0191,0.0194,0,-0.0352,-0.034,-0.0287,-0.026,-0.0244,-0.021,-0.0138,-0.0098,-0.0022,0.0004,0.006,0.0077,0.0164,0.01,0.0226,0.0176,0.0182,0.0201,0.0206,0.0194,0.0132,0.0229,0.0338,0.031,0.0222,0.022,0.0218,0,-0.0294,-0.0259,-0.0221,-0.0208,-0.0176,-0.0146,-0.0121,-0.0057,-0.0006,0.0082,0.014,0.0223,0.029,0.0334,0.0364,0.031,0.0502,0.043,0.0416,0.0413,0.0424,0.0417,0.0534,0.051,0.051,0.051,0.0509,0,-0.0223,-0.0187,-0.0195,-0.0169,-0.0108,-0.0106,-0.0024,0.0009,0.0085,0.0177,0.0201,0.0303,0.0356,0.0456,0.0446,0.0522,0.0573,0.0468,0.0469,0.0435,0.0428,0.0422,0.0394,0.0514,0.0513,0.0512,0.0512,0,-0.0151,-0.0157,-0.0113,-0.0092,-0.008,-0.0035,0.002,0.0082,0.0137,0.0263,0.03,0.0417,0.055,0.0587,0.0688,0.0643,0.0687,0.0684,0.0631,0.0624,0.0547,0.0521,0.0656,0.0664,0.0704,0.0704,0.0705,0,-0.011,-0.0083,-0.0058,-0.0031,-0.002,0.0031,0.0077,0.0115,0.0183,0.0341,0.0421,0.057,0.0698,0.0842,0.0806,0.0822,0.0757,0.0767,0.0648,0.0588,0.0561,0.0527,0.0521,0.0677,0.0677,0.0677,0.0677,0,-0.0031,-0.0027,0.0,0.0046,0.0086,0.014,0.0198,0.026,0.0336,0.0451,0.0634,0.075,0.086,0.0922,0.0909,0.0866,0.075,0.0769,0.0748,0.0603,0.0541,0.0532,0.0521,0.068,0.0679,0.0679,0.0679,0.0679,0.003,0.006,0.0084,0.0132,0.018,0.0251,0.0318,0.0394,0.0523,0.0695,0.078,0.0968,0.1013,0.1009,0.0925,0.0776,0.0772,0.0701,0.0692,0.0676,0.0643,0.0626,0.075,0.075,0.075,0.075,0.075,0,0.0097,0.012,0.0168,0.0231,0.0301,0.0306,0.0411,0.0484,0.065,0.08,0.0953,0.1134,0.1124,0.1049,0.0884,0.0744,0.066,0.0674,0.0626,0.0635,0.0666,0.062,0.0674,0.0674,0.0674,0.0674,0.0674,0.0674,0.0138,0.0186,0.0201,0.0322,0.0378,0.0475,0.0543,0.0646,0.0758,0.0972,0.1121,0.1234,0.1321,0.1032,0.0816,0.0722,0.0655,0.06,0.0614,0.0607,0.0608,0.0609,0.056,0.0601,0.0601,0.057,0.057,0.057]}],[{"header":{"parameterUnit":"m.s-1","parameterCategory":2,"la1":30.2991,"la2":30.254,"lo1":-89.0895,"lo2":-89.0444,"dy":0.0017,"dx":0.0017,"nx":28,"ny":28,"refTime":"2024-05-19T03:00:00:Z","depth":"2","parameterNumber":2,"parameterNumberName":"U-component_of_CURRENTS"},"data":[0,0,0,0,0,0,0,0,0,0,0,0,0,0,0,0,0,0,0,0,0,0,0,0,0,0,0,0,0,0,0,0,0,0,0,0,0,0,0,0,0,0,0,0,0,0,0,0,0,0,0,0,0,0,0,0,0,0,0.1319,0.132,0,0.1345,0.1346,0.1346,0.135,0.1349,0.1349,0.1349,0.1394,0.1395,0.1396,0,0,0,0,0,0,0,0,0,0,0,0,0,0.1277,0.1278,0.1319,0.132,0.132,0.1345,0.1346,0.1346,0.135,0.1349,0.1349,0.1349,0.1394,0.1395,0.1397,0,0,0,0,0,0,0,0,0,0,0,0,0,0.1297,0.1278,0.1319,0.1326,0.1328,0.1345,0.1346,0.1346,0.135,0.1349,0.1349,0.1349,0.1393,0.1395,0.1397,0.1411,0,0,0.1403,0.1403,0,0,0,0,0,0,0,0,0.1296,0.1298,0.1325,0.1326,0.1327,0.1346,0.1347,0.1369,0.135,0.1339,0.1349,0.1349,0.1381,0.1384,0.1386,0.1413,0.1415,0.1403,0.1404,0.1405,0.1405,0,0,0,0,0,0,0,0.1294,0.1297,0.1328,0.1325,0.1327,0.133,0.1332,0.1351,0.1359,0.134,0.1341,0.1347,0.1381,0.1384,0.1387,0.1415,0.1403,0.1404,0.1406,0.1406,0.144,0.144,0,0,0,0,0,0,0.1295,0.1296,0.1327,0.1329,0.1313,0.1331,0.1334,0.1338,0.1359,0.1362,0.1347,0.1347,0.1381,0.1385,0.1389,0.1409,0.1405,0.1406,0.1408,0.144,0.144,0.1439,0,0,0,0,0,0,0.1294,0.1297,0.1326,0.1314,0.1318,0.1332,0.1337,0.1339,0.1338,0.1364,0.1367,0.1344,0.1381,0.1386,0.1398,0.141,0.1407,0.1409,0.144,0.144,0.144,0.1447,0,0,0,0,0,0,0.1292,0.1296,0.1304,0.1314,0.1319,0.134,0.1338,0.134,0.1343,0.1343,0.1362,0.1367,0.1381,0.1395,0.14,0.1413,0.141,0.1441,0.144,0.144,0.1447,0.1447,0.1447,0,0,0,0,0,0.129,0.1305,0.1304,0.1308,0.1328,0.134,0.1343,0.1351,0.1343,0.1347,0.1352,0.1366,0.1395,0.1396,0.1402,0.1416,0.1441,0.144,0.144,0.1447,0.1447,0.1447,0,0,0,0,0,0,0.1296,0.1307,0.1307,0.1325,0.1332,0.1342,0.1354,0.1347,0.1353,0.1352,0.1365,0.137,0.1385,0.1393,0.1394,0.1421,0.142,0.1421,0.1424,0.1424,0.1424,0.1455,0.1412,0,0,0,0,0,0.1299,0.1312,0.1318,0.1335,0.1338,0.1341,0.1347,0.1346,0.1352,0.1354,0.1361,0.1371,0.1388,0.1399,0.1413,0.143,0.1489,0.144,0.144,0.144,0.1467,0.158,0.1595,0.1438,0.1438,0.1438,0,0,0.131,0.1316,0.1326,0.1337,0.1344,0.1354,0.1344,0.1353,0.1357,0.136,0.1366,0.1372,0.1391,0.1409,0.1417,0.1419,0.1507,0.1439,0.1439,0.1468,0.1582,0.1598,0.1612,0.1437,0.1437,0.1437,0,0,0.1339,0.1338,0.1359,0.1361,0.1368,0.1366,0.1365,0.1364,0.136,0.1362,0.1368,0.1384,0.1393,0.1421,0.1434,0.1442,0.1502,0.1434,0.1466,0.1575,0.159,0.1605,0.1675,0.1696,0.1436,0.1436,0.1436,0,0.1354,0.1372,0.1368,0.1382,0.1388,0.1369,0.1385,0.1379,0.1378,0.139,0.1364,0.1409,0.1408,0.1467,0.1457,0.1448,0.151,0.1466,0.158,0.1596,0.161,0.1679,0.1702,0.1437,0.1436,0.1436,0.1436,0,0.1393,0.1404,0.1414,0.1423,0.1428,0.1436,0.1425,0.1423,0.1405,0.141,0.1444,0.1447,0.149,0.1473,0.1463,0.1557,0.1567,0.1569,0.159,0.1628,0.1696,0.172,0.1437,0.1437,0.1437,0.1437,0,0,0.1439,0.1442,0.1445,0.1447,0.1445,0.145,0.1459,0.1474,0.1491,0.1486,0.1531,0.1539,0.1555,0.1572,0.1571,0.1638,0.1759,0.1643,0.1648,0.1729,0.1993,0.1776,0.1781,0.1796,0.1801,0.1805,0.1991,0,0.1472,0.1493,0.1491,0.1507,0.1514,0.1502,0.1512,0.1521,0.1524,0.1556,0.1582,0.1616,0.159,0.1609,0.1682,0.1739,0.1827,0.1708,0.1931,0.1937,0.1755,0.1803,0.1626,0.1759,0.2015,0.2019,0.2021,0,0.1511,0.1516,0.1538,0.1537,0.1541,0.1549,0.1569,0.1576,0.1621,0.1629,0.1693,0.1712,0.1801,0.1765,0.1949,0.188,0.1952,0.1991,0.2,0.182,0.1764,0.1766,0.1793,0.2062,0.2058,0.2056,0.2053,0,0.1531,0.1546,0.1558,0.1558,0.1561,0.1574,0.1577,0.1608,0.1615,0.1692,0.1711,0.1836,0.1875,0.2016,0.2043,0.2044,0.222,0.2243,0.2128,0.2114,0.2017,0.1983,0.2416,0.2416,0.2415,0.2415,0.2414,0,0.1556,0.1567,0.1566,0.157,0.1586,0.1589,0.1615,0.1634,0.1672,0.1698,0.1759,0.1803,0.1943,0.2022,0.2104,0.2145,0.2289,0.2153,0.2157,0.2002,0.1967,0.2271,0.2251,0.2422,0.242,0.2419,0.2418,0,0.1577,0.1575,0.1588,0.1594,0.1594,0.1607,0.161,0.1627,0.1661,0.1702,0.1728,0.1815,0.1913,0.1991,0.2178,0.2173,0.2261,0.2242,0.2004,0.1972,0.2093,0.2072,0.2221,0.2215,0.221,0.2206,0.2202,0,0.1594,0.1601,0.1602,0.16,0.1602,0.1611,0.1611,0.1627,0.1635,0.1698,0.1715,0.1799,0.1838,0.1959,0.1954,0.2039,0.2151,0.1919,0.1877,0.2089,0.208,0.2066,0.2052,0.1776,0.1769,0.1764,0.1759,0,0.1627,0.1623,0.1622,0.1608,0.1605,0.1596,0.1594,0.1592,0.1612,0.1633,0.1662,0.1701,0.1733,0.1692,0.1699,0.1742,0.1884,0.1804,0.2162,0.1786,0.1666,0.1656,0.166,0.171,0.1715,0.1719,0.1721,0.1723,0.1653,0.1643,0.1625,0.1601,0.1599,0.1568,0.1543,0.1533,0.1524,0.1493,0.1563,0.1512,0.1517,0.1406,0.1404,0.1388,0.1551,0.1554,0.1576,0.1602,0.1451,0.1321,0.1274,0.1276,0.1278,0.128,0.1281,0,0.1658,0.163,0.1613,0.1569,0.1543,0.1558,0.1513,0.1449,0.1409,0.1353,0.1327,0.113,0.11,0.1124,0.101,0.1023,0.1071,0.102,0.1097,0.1143,0.1185,0.1017,0.0725,0.0723,0.0722,0.072,0,0,0.1659,0.1612,0.1567,0.1504,0.1497,0.142,0.1388,0.1298,0.1201,0.1036,0.0931,0.0953,0.1005,0.0795,0.0809,0.0751,0.094,0.0717,0.1158,0.1288,0.1329,0.148,0.1268,0,0,0,0,0]},{"header":{"parameterUnit":"m.s-1","parameterCategory":2,"la1":30.2991,"la2":30.254,"lo1":-89.0895,"lo2":-89.0444,"dy":0.0017,"dx":0.0017,"nx":28,"ny":28,"refTime":"2024-05-19T03:00:00:Z","depth":"2","parameterNumber":3,"parameterNumberName":"V-component_of_CURRENTS"},"data":[0,0,0,0,0,0,0,0,0,0,0,0,0,0,0,0,0,0,0,0,0,0,0,0,0,0,0,0,0,0,0,0,0,0,0,0,0,0,0,0,0,0,0,0,0,0,0,0,0,0,0,0,0,0,0,0,0,0,0.0336,0.0336,0,0.0319,0.0319,0.0319,0.03,0.0299,0.0299,0.0298,0.0286,0.0286,0.0286,0,0,0,0,0,0,0,0,0,0,0,0,0,0.0368,0.0367,0.0336,0.0336,0.0335,0.0319,0.0319,0.0319,0.03,0.0299,0.0298,0.0298,0.0286,0.0286,0.0286,0,0,0,0,0,0,0,0,0,0,0,0,0,0.0355,0.0367,0.0336,0.0322,0.032,0.0319,0.0319,0.0319,0.03,0.0299,0.0298,0.0298,0.0286,0.0286,0.0286,0.0304,0,0,0.0287,0.0287,0,0,0,0,0,0,0,0,0.0356,0.0354,0.0324,0.0323,0.0321,0.0309,0.0326,0.0314,0.03,0.031,0.0298,0.0297,0.0293,0.0293,0.0295,0.0303,0.0303,0.0287,0.0287,0.0288,0.0288,0,0,0,0,0,0,0,0.0357,0.0355,0.0332,0.0324,0.0322,0.0321,0.0319,0.0324,0.0308,0.0309,0.0307,0.0302,0.0292,0.0295,0.0294,0.0303,0.0287,0.0287,0.0288,0.0288,0.029,0.029,0,0,0,0,0,0,0.0354,0.0356,0.0332,0.0331,0.0334,0.0321,0.0319,0.0315,0.0308,0.0305,0.0302,0.0301,0.0294,0.0294,0.0294,0.0267,0.0288,0.0288,0.0288,0.029,0.029,0.0289,0,0,0,0,0,0,0.0355,0.0352,0.0333,0.0341,0.0338,0.0321,0.0318,0.0315,0.0295,0.0302,0.03,0.0281,0.0294,0.0293,0.0294,0.0268,0.0288,0.0288,0.029,0.029,0.029,0.0244,0,0,0,0,0,0,0.0356,0.0352,0.034,0.0341,0.0337,0.032,0.0318,0.0316,0.0293,0.029,0.0284,0.0283,0.0293,0.0293,0.0294,0.0269,0.0288,0.029,0.029,0.029,0.0246,0.0242,0.024,0,0,0,0,0,0.0357,0.0345,0.034,0.0336,0.0324,0.0319,0.0317,0.0305,0.0292,0.0283,0.0287,0.0282,0.0292,0.0294,0.0294,0.0269,0.029,0.029,0.029,0.0247,0.0243,0.024,0,0,0,0,0,0,0.035,0.0342,0.0336,0.0321,0.0314,0.0314,0.03,0.0292,0.0287,0.0278,0.0287,0.0287,0.0277,0.0286,0.0287,0.0271,0.0288,0.0287,0.0255,0.0251,0.0248,0.0258,0.0289,0,0,0,0,0,0.0344,0.0331,0.0328,0.0312,0.0307,0.0299,0.029,0.0282,0.0281,0.0276,0.0273,0.0274,0.0281,0.0276,0.0284,0.0276,0.0301,0.026,0.0257,0.0254,0.0264,0.0272,0.0271,0.0289,0.0289,0.0289,0,0,0.0336,0.0329,0.032,0.0309,0.0301,0.0302,0.0292,0.0272,0.0268,0.0277,0.0263,0.0263,0.0279,0.0273,0.0267,0.0272,0.0266,0.0254,0.0251,0.0263,0.0272,0.027,0.0269,0.0289,0.0289,0.0289,0,0,0.033,0.0307,0.0303,0.0298,0.0281,0.0281,0.027,0.026,0.0246,0.0238,0.0245,0.0234,0.0236,0.0243,0.0249,0.0235,0.0252,0.0227,0.0212,0.0219,0.0218,0.0217,0.026,0.0263,0.0221,0.022,0.022,0,0.032,0.0321,0.03,0.03,0.0301,0.0272,0.028,0.0262,0.025,0.0254,0.0227,0.0238,0.0225,0.0243,0.0224,0.0226,0.0248,0.022,0.0214,0.0214,0.0214,0.0258,0.0262,0.0218,0.0218,0.0219,0.0219,0,0.0325,0.0321,0.0315,0.0312,0.0307,0.0301,0.0286,0.027,0.0244,0.0238,0.0231,0.0216,0.0231,0.0205,0.0201,0.0195,0.0219,0.021,0.0221,0.0209,0.0257,0.0262,0.0215,0.0216,0.0216,0.0217,0,0,0.032,0.0324,0.032,0.0335,0.0316,0.0322,0.0306,0.0309,0.0325,0.0267,0.0298,0.0244,0.0231,0.0237,0.0223,0.0201,0.0195,0.0191,0.0193,0.0231,0.0239,0.0204,0.0207,0.0178,0.0178,0.0178,0.0278,0,0.0334,0.0357,0.0351,0.0371,0.0384,0.0365,0.0372,0.0362,0.0349,0.0365,0.0315,0.0331,0.0246,0.0257,0.0213,0.0224,0.0204,0.0171,0.0249,0.0253,0.0219,0.0209,0.0206,0.0289,0.0283,0.0284,0.0285,0,0.0343,0.0363,0.0394,0.0429,0.0436,0.0441,0.0471,0.0473,0.0474,0.0468,0.0447,0.043,0.0402,0.0326,0.03,0.0284,0.0249,0.0231,0.0235,0.0223,0.0226,0.0299,0.0299,0.0294,0.0293,0.0292,0.0292,0,0.0364,0.0392,0.0428,0.0433,0.0463,0.0477,0.049,0.0501,0.0524,0.0541,0.0569,0.0534,0.0538,0.0473,0.0396,0.036,0.038,0.0343,0.0283,0.0284,0.0308,0.0308,0.0312,0.0312,0.0311,0.0311,0.0311,0,0.0384,0.0408,0.0441,0.0457,0.0506,0.0514,0.0568,0.0575,0.0615,0.0658,0.0621,0.0647,0.0565,0.0553,0.0464,0.0399,0.0436,0.0289,0.0297,0.0293,0.0291,0.0312,0.031,0.0315,0.0314,0.0313,0.0313,0,0.039,0.0412,0.0452,0.0496,0.0511,0.054,0.0599,0.0648,0.0678,0.0739,0.0749,0.0755,0.0735,0.0666,0.0609,0.0505,0.0446,0.0407,0.0421,0.0424,0.0334,0.033,0.0371,0.0371,0.037,0.037,0.0369,0,0.0398,0.0418,0.0469,0.0498,0.0514,0.0564,0.0608,0.0657,0.0717,0.0789,0.0832,0.0843,0.0835,0.0765,0.0614,0.051,0.0472,0.043,0.0325,0.0332,0.0336,0.0333,0.0329,0.0366,0.0365,0.0365,0.0365,0,0.0408,0.042,0.0456,0.051,0.0555,0.0618,0.0687,0.0746,0.0817,0.0877,0.0941,0.0945,0.0866,0.0755,0.0615,0.0519,0.0443,0.0416,0.0451,0.0324,0.0327,0.033,0.0327,0.0362,0.0362,0.0362,0.0363,0.0363,0.041,0.043,0.0473,0.0528,0.0583,0.0661,0.0719,0.0807,0.0898,0.0983,0.0992,0.0983,0.0876,0.0662,0.0543,0.0407,0.04,0.0338,0.034,0.0342,0.0296,0.0294,0.0319,0.0319,0.0319,0.0319,0.0319,0,0.0412,0.0442,0.0493,0.0562,0.0628,0.0651,0.077,0.0831,0.0932,0.099,0.1024,0.0881,0.0778,0.0653,0.0442,0.0318,0.03,0.0283,0.0297,0.0301,0.0304,0.0256,0.0269,0.0268,0.0268,0.0267,0,0,0.0417,0.046,0.0492,0.0589,0.0635,0.0712,0.0775,0.0854,0.0916,0.0969,0.0956,0.0934,0.0794,0.0626,0.0489,0.0385,0.0361,0.0351,0.0405,0.0442,0.0446,0.035,0.0281,0,0,0,0,0]}],[{"header":{"parameterUnit":"m.s-1","parameterCategory":2,"la1":30.2991,"la2":30.254,"lo1":-89.0895,"lo2":-89.0444,"dy":0.0017,"dx":0.0017,"nx":28,"ny":28,"refTime":"2024-05-19T03:00:00:Z","depth":"4","parameterNumber":2,"parameterNumberName":"U-component_of_CURRENTS"},"data":[0,0,0,0,0,0,0,0,0,0,0,0,0,0,0,0,0,0,0,0,0,0,0,0,0,0,0,0,0,0,0,0,0,0,0,0,0,0,0,0,0,0,0,0,0,0,0,0,0,0,0,0,0,0,0,0,0,0,-0.0107,-0.0107,0,-0.0121,-0.012,-0.012,-0.0096,-0.0095,-0.0095,-0.0095,-0.0017,-0.0015,-0.0013,0,0,0,0,0,0,0,0,0,0,0,0,0,-0.0054,-0.0054,-0.0107,-0.0107,-0.0108,-0.0121,-0.012,-0.012,-0.0096,-0.0095,-0.0095,-0.0094,-0.0017,-0.0015,-0.0013,0,0,0,0,0,0,0,0,0,0,0,0,0,-0.0068,-0.0055,-0.0107,-0.0101,-0.0101,-0.0121,-0.012,-0.012,-0.0096,-0.0095,-0.0095,-0.0094,-0.0018,-0.0015,-0.0013,-0.0008,0,0,-0.0005,-0.0004,0,0,0,0,0,0,0,0,-0.0068,-0.007,-0.0101,-0.0102,-0.0102,-0.011,-0.0073,-0.008,-0.0096,-0.0093,-0.0095,-0.0094,-0.0043,-0.0038,-0.0036,-0.0004,-0.0001,-0.0005,-0.0003,-0.0002,-0.0001,0,0,0,0,0,0,0,-0.0067,-0.0069,-0.0107,-0.0102,-0.0102,-0.0096,-0.0097,-0.0074,-0.0065,-0.0093,-0.0092,-0.0102,-0.0042,-0.0039,-0.0034,0.0,-0.0005,-0.0002,-0.0001,0.0,0.0146,0.0148,0,0,0,0,0,0,-0.0076,-0.0068,-0.0107,-0.0108,-0.0088,-0.0098,-0.0099,-0.0104,-0.0068,-0.0064,-0.0102,-0.0101,-0.0044,-0.0037,-0.0031,0.0092,-0.0002,0.0001,0.0002,0.0144,0.0147,0.0149,0,0,0,0,0,0,-0.0075,-0.0079,-0.0106,-0.0092,-0.0096,-0.01,-0.0106,-0.0105,-0.0072,-0.0077,-0.007,-0.0068,-0.0043,-0.0035,0.0026,0.0091,0.0002,0.0004,0.0141,0.0145,0.0148,0.0265,0,0,0,0,0,0,-0.0073,-0.0078,-0.0073,-0.0093,-0.0098,-0.0104,-0.0107,-0.0106,-0.0083,-0.008,-0.0045,-0.004,-0.0042,0.0022,0.0028,0.0093,0.0006,0.0138,0.0143,0.0147,0.0258,0.0272,0.0284,0,0,0,0,0,-0.0071,-0.0065,-0.0072,-0.0077,-0.0094,-0.0104,-0.0104,-0.0102,-0.0082,-0.0068,-0.0029,-0.0039,0.0054,0.0026,0.0033,0.01,0.0136,0.0142,0.0147,0.0252,0.0269,0.0283,0,0,0,0,0,0,-0.0036,-0.0063,-0.0071,-0.0073,-0.0084,-0.0101,-0.009,-0.0082,-0.0042,-0.0027,-0.0012,-0.0003,0.0075,0.0067,0.0036,0.0153,0.0095,0.0101,0.0173,0.0189,0.0201,0.0195,0.0008,0,0,0,0,0,-0.003,-0.0034,-0.0059,-0.006,-0.0061,-0.0066,-0.0063,-0.0065,-0.0045,-0.0026,0.0018,0.0057,0.0096,0.0126,0.0152,0.0216,0.0175,0.0263,0.0276,0.0287,0.0286,0.0286,0.0298,0.0166,0.0166,0.0166,0,0,-0.0023,-0.0035,-0.004,-0.0053,-0.0057,-0.0052,-0.006,-0.0054,-0.0021,-0.0023,0.0073,0.0105,0.0121,0.0196,0.023,0.0204,0.0301,0.0293,0.0303,0.0296,0.0293,0.0305,0.0317,0.017,0.0169,0.0169,0,0,-0.0013,-0.0013,-0.0014,-0.002,-0.003,-0.0027,-0.0016,0.0001,0.0042,0.0115,0.0131,0.0199,0.0273,0.0298,0.0316,0.0412,0.0365,0.0435,0.0504,0.0505,0.0516,0.0524,0.0474,0.0477,0.0446,0.0446,0.0446,0,-0.0006,-0.0008,-0.0014,-0.0015,-0.0016,-0.0007,-0.0002,0.004,0.0089,0.0134,0.0163,0.0287,0.0319,0.0386,0.0441,0.0443,0.0417,0.0447,0.0521,0.0529,0.0536,0.0482,0.0484,0.0452,0.0452,0.0451,0.045,0,-0.0008,0.0001,0.0006,0.001,0.0016,0.0021,0.0054,0.0114,0.0184,0.0227,0.0339,0.0393,0.0461,0.05,0.0516,0.0592,0.0547,0.0533,0.0479,0.0556,0.0494,0.0494,0.0461,0.0459,0.0457,0.0456,0,0,-0.0034,-0.0004,-0.0005,0.0015,0.0027,0.0035,0.0105,0.0163,0.0233,0.0327,0.0415,0.0529,0.0573,0.0595,0.0624,0.0654,0.0702,0.064,0.0637,0.0583,0.0673,0.0612,0.0604,0.071,0.0711,0.0712,0.0604,0,-0.0037,-0.0025,-0.001,0.0026,0.0041,0.0075,0.0145,0.0207,0.0294,0.0398,0.047,0.0566,0.0602,0.0657,0.0699,0.07,0.071,0.0729,0.0611,0.0606,0.0539,0.0606,0.0716,0.0604,0.0604,0.0604,0.0604,0,-0.0052,-0.0037,-0.0013,0.0055,0.0066,0.0105,0.0203,0.027,0.0391,0.046,0.0553,0.0608,0.0688,0.0706,0.0729,0.0744,0.0728,0.0716,0.0711,0.0612,0.0547,0.0515,0.0602,0.0603,0.0603,0.0603,0.0603,0,-0.0069,-0.0032,-0.0003,0.0007,0.008,0.013,0.0194,0.0303,0.0373,0.0504,0.0551,0.0642,0.0688,0.0702,0.0706,0.0728,0.069,0.0696,0.0604,0.0595,0.0626,0.0618,0.0695,0.0695,0.0695,0.0696,0.0696,0,-0.0078,-0.0056,0.0006,0.0023,0.0094,0.0149,0.0255,0.033,0.0433,0.0512,0.0595,0.0648,0.0699,0.0692,0.0692,0.0638,0.0666,0.0618,0.058,0.0675,0.0674,0.0624,0.0617,0.0691,0.0692,0.0693,0.0694,0,-0.0097,-0.0068,-0.0021,0.006,0.0094,0.0158,0.0275,0.035,0.0441,0.0531,0.0566,0.0643,0.0657,0.0645,0.0639,0.0596,0.0556,0.0518,0.058,0.0546,0.0459,0.0459,0.0416,0.0414,0.0411,0.041,0.0408,0,-0.0104,-0.0085,-0.0001,0.0036,0.0083,0.0181,0.0248,0.0355,0.0405,0.0528,0.0544,0.0595,0.0639,0.0553,0.056,0.0487,0.0486,0.0413,0.05,0.0471,0.0438,0.0442,0.0446,0.0404,0.0404,0.0403,0.0403,0,-0.0121,-0.0089,-0.0049,0.0034,0.0106,0.0173,0.0262,0.0287,0.0405,0.047,0.0535,0.0558,0.0551,0.0546,0.0466,0.0431,0.0445,0.039,0.0396,0.0477,0.0455,0.0426,0.0432,0.0395,0.0396,0.0396,0.0397,0,-0.0129,-0.0105,-0.0045,0.0035,0.0097,0.0144,0.0207,0.0269,0.0332,0.0443,0.0467,0.0529,0.0579,0.0513,0.0457,0.04,0.0412,0.037,0.0378,0.0386,0.0426,0.0397,0.0292,0,0,0,0,0,-0.0128,-0.0104,-0.0047,0.0031,0.0083,0.0127,0.0194,0.0247,0.0335,0.037,0.0422,0.0439,0.0433,0.0447,0.0382,0.0402,0.0374,0.0317,0.0323,0.0351,0.036,0.041,0,0,0,0,0,0,-0.0128,-0.0093,-0.0058,-0.0005,0.0044,0.0104,0.0147,0.0215,0.0225,0.0319,0.032,0.0381,0.037,0.0475,0.0374,0.0365,0.0344,0.0337,0.0334,0.0345,0.0354,0.0361,0.0416,0,0,0,0,0]},{"header":{"parameterUnit":"m.s-1","parameterCategory":2,"la1":30.2991,"la2":30.254,"lo1":-89.0895,"lo2":-89.0444,"dy":0.0017,"dx":0.0017,"nx":28,"ny":28,"refTime":"2024-05-19T03:00:00:Z","depth":"4","parameterNumber":3,"parameterNumberName":"V-component_of_CURRENTS"},"data":[0,0,0,0,0,0,0,0,0,0,0,0,0,0,0,0,0,0,0,0,0,0,0,0,0,0,0,0,0,0,0,0,0,0,0,0,0,0,0,0,0,0,0,0,0,0,0,0,0,0,0,0,0,0,0,0,0,0,0.0394,0.0394,0,0.0411,0.0411,0.0411,0.0478,0.048,0.0481,0.0482,0.0488,0.0487,0.0486,0,0,0,0,0,0,0,0,0,0,0,0,0,0.0407,0.0406,0.0394,0.0394,0.0394,0.041,0.0411,0.0411,0.0478,0.048,0.0481,0.0483,0.0489,0.0487,0.0486,0,0,0,0,0,0,0,0,0,0,0,0,0,0.0412,0.0406,0.0394,0.0428,0.0431,0.041,0.0411,0.0411,0.0478,0.048,0.0482,0.0484,0.0489,0.0487,0.0486,0.0435,0,0,0.0481,0.048,0,0,0,0,0,0,0,0,0.0412,0.0412,0.0423,0.0425,0.0429,0.0443,0.0418,0.0418,0.0477,0.0462,0.0482,0.0485,0.0469,0.0469,0.0471,0.0435,0.0435,0.0481,0.048,0.0479,0.0478,0,0,0,0,0,0,0,0.0411,0.0411,0.0403,0.0423,0.0426,0.0437,0.0441,0.0418,0.0455,0.0463,0.0468,0.0466,0.0471,0.0472,0.0471,0.0435,0.0481,0.0479,0.0478,0.0477,0.0403,0.0402,0,0,0,0,0,0,0.0403,0.0411,0.0402,0.0403,0.0423,0.0435,0.0439,0.0438,0.0456,0.046,0.0464,0.0469,0.0474,0.0473,0.0472,0.0499,0.0479,0.0477,0.0476,0.0404,0.0403,0.0402,0,0,0,0,0,0,0.0403,0.0402,0.0401,0.0406,0.0406,0.0433,0.0431,0.0437,0.049,0.0456,0.0461,0.0517,0.0476,0.0474,0.0482,0.0496,0.0477,0.0475,0.0405,0.0404,0.0402,0.0497,0,0,0,0,0,0,0.0404,0.0402,0.0413,0.0405,0.0406,0.0423,0.0429,0.0436,0.0481,0.049,0.0501,0.0501,0.0477,0.0485,0.0481,0.0494,0.0474,0.0406,0.0404,0.0403,0.0495,0.0499,0.0502,0,0,0,0,0,0.0404,0.0414,0.0414,0.0413,0.0415,0.0424,0.0427,0.0453,0.0483,0.0509,0.051,0.0504,0.0469,0.0484,0.0479,0.0491,0.0407,0.0405,0.0403,0.0493,0.0498,0.0502,0,0,0,0,0,0,0.0428,0.0421,0.0421,0.0429,0.0439,0.0435,0.0456,0.048,0.0504,0.0514,0.0503,0.0502,0.051,0.0477,0.0494,0.0456,0.0431,0.0428,0.0501,0.0506,0.0509,0.0509,0.0472,0,0,0,0,0,0.0432,0.0441,0.0434,0.0445,0.0449,0.0462,0.0476,0.0491,0.05,0.0517,0.0526,0.0509,0.0484,0.0484,0.0456,0.0446,0.0393,0.0441,0.0445,0.0449,0.044,0.0364,0.0361,0.0394,0.0394,0.0394,0,0,0.044,0.044,0.0444,0.0451,0.0457,0.0468,0.0479,0.0504,0.0523,0.0506,0.055,0.0532,0.0484,0.0472,0.047,0.0458,0.0413,0.0446,0.045,0.0438,0.0361,0.0358,0.0355,0.0393,0.0393,0.0393,0,0,0.0453,0.0464,0.0472,0.0481,0.0493,0.0497,0.0519,0.0537,0.0562,0.0583,0.0565,0.056,0.0546,0.0506,0.0482,0.0482,0.0437,0.0476,0.0499,0.0426,0.0423,0.042,0.0368,0.036,0.0476,0.0476,0.0476,0,0.0463,0.0467,0.0479,0.0488,0.0492,0.052,0.0527,0.0551,0.0576,0.0578,0.0609,0.0566,0.0553,0.0502,0.0512,0.0495,0.045,0.05,0.0434,0.0429,0.0425,0.0372,0.0361,0.048,0.048,0.0479,0.0479,0,0.0468,0.0484,0.0493,0.0508,0.0522,0.0534,0.055,0.0583,0.0621,0.0627,0.0621,0.0598,0.0567,0.0564,0.0551,0.0501,0.0481,0.0456,0.0435,0.0428,0.0372,0.0359,0.0486,0.0485,0.0483,0.0482,0,0,0.0446,0.0486,0.0489,0.0502,0.0528,0.0538,0.0568,0.0579,0.0595,0.0626,0.0621,0.0606,0.0604,0.0573,0.0548,0.05,0.0457,0.0479,0.0473,0.0448,0.031,0.034,0.0329,0.0426,0.0424,0.0422,0.0293,0,0.0442,0.046,0.0479,0.0508,0.0518,0.0544,0.0566,0.0584,0.0607,0.0616,0.0591,0.0584,0.0602,0.0594,0.0552,0.0469,0.0424,0.0495,0.0301,0.0295,0.0339,0.0314,0.0415,0.0283,0.028,0.0278,0.0276,0,0.0435,0.0444,0.0465,0.0501,0.0506,0.054,0.0561,0.0588,0.0594,0.0601,0.0589,0.0577,0.0528,0.0544,0.0411,0.0458,0.0398,0.0339,0.0332,0.0314,0.0301,0.0281,0.0252,0.0254,0.0256,0.0257,0.0259,0,0.0411,0.0441,0.0458,0.0469,0.0509,0.0536,0.0573,0.0592,0.0599,0.0603,0.0589,0.0537,0.0502,0.042,0.0352,0.037,0.0195,0.0191,0.0155,0.0156,0.0129,0.0133,0.0085,0.0085,0.0085,0.0086,0.0086,0,0.0397,0.0412,0.0463,0.0475,0.0506,0.0541,0.058,0.0603,0.0604,0.0598,0.0595,0.0553,0.0469,0.0379,0.0319,0.0206,0.0165,0.0149,0.0118,0.0173,0.0183,0.0121,0.0127,0.0081,0.0082,0.0083,0.0084,0,0.038,0.0407,0.0436,0.0483,0.051,0.0545,0.0609,0.062,0.0627,0.0611,0.0609,0.0536,0.043,0.0341,0.0186,0.0157,0.0049,0.0019,0.0095,0.0071,0.0066,0.0078,-0.0051,-0.0051,-0.0051,-0.0051,-0.0051,0,0.037,0.0388,0.0452,0.0483,0.0522,0.0581,0.0617,0.0644,0.0625,0.06,0.0555,0.0473,0.0426,0.0224,0.0142,0.001,0.0007,-0.0039,0.0015,0.0065,0.0048,0.006,0.0072,-0.0052,-0.0052,-0.0052,-0.0052,0,0.0346,0.0386,0.041,0.0484,0.054,0.0572,0.0611,0.0592,0.06,0.0591,0.0515,0.0462,0.0329,0.0213,0.0116,0.0028,-0.0002,-0.0041,-0.0041,0.001,0.0063,0.0048,0.006,-0.0052,-0.0052,-0.0052,-0.0052,0,0.0338,0.035,0.0408,0.0467,0.0521,0.054,0.0581,0.056,0.0549,0.0506,0.048,0.0403,0.0345,0.0219,0.0127,0.005,0.0036,0.0035,0.003,0.003,0.0114,0.0197,0.0084,0,0,0,0,0,0.0322,0.0332,0.0385,0.044,0.0496,0.0538,0.0541,0.0562,0.0551,0.0501,0.0494,0.0396,0.0293,0.0225,0.0148,0.0112,0.0012,0.0021,0.0006,-0.0055,-0.0054,0.0036,0,0,0,0,0,0,0.0309,0.0347,0.0362,0.0397,0.0448,0.0501,0.0517,0.0535,0.0478,0.0473,0.0393,0.0399,0.0258,0.0338,0.0154,0.013,0.0116,-0.0032,-0.0033,-0.0055,-0.0055,-0.0054,0.0039,0,0,0,0,0]}]]